星链-32372 (STARLINK-32372)

导读

STARLINK-32372是美国太空探索技术公司(SpaceX)于2024年11月14日发射的星链(Starlink)系列卫星,隶属于Starlink全球卫星互联网星座项目。该项目计划在近地轨道部署数万颗卫星,旨在为全球偏远、网络基础设施薄弱地区提供低延迟、高速宽带互联网接入服务,目前已在全球六十多个国家和地区落地商用服务,卫星入轨后将逐步展开工作,扩展星链星座的服务覆盖范围。

基本信息
目录编号:
61960
目录名称:
STARLINK-32372
国际标识:
2024-210B
轨道中心:
EARTH
卫星名称:
星链-32372
卫星全名:
星链-32372 (STARLINK-32372)
卫星状态:
在轨 (已飞行659 天)
发射日期:
2024-11-14 UTC
国别 :
美国 (US)
星等 :
--
轨道信息
数据来源 国际轨道数据
星历时间: 2026-09-03T10:01:32+0800
1天前
查看轨道信息
半长轴: 6861.143km
偏心率: 0.0001206
轨道倾角: 43.003°
近地点辐角 255.628°
升交点赤经 257.694°
平近点角 104.444°
近地点: 482.178km
远地点: 483.834km
周期: 94.266分钟
每日圈数: 15.275946
详细信息
固有亮度:
5
最大亮度:
2.5
卫星平台:
Starlink V1.0
覆盖范围:
全球
运营商:
太空探索技术公司
运营商所在国:
美国
制造商(研发单位):
太空探索技术公司
制造商所在国:
美国
使用方式:
暂无
卫星简介
Starlink 计划是 SpaceX 推出的全球卫星互联网项目,通过发射低轨道卫星,为全球尤其是偏远地区提供高速、低延迟的互联网服务。自 2019 年起,Starlink 已部署数千颗卫星,旨在缩小全球数字鸿沟,推动互联网普及。该项目还为军事、航空等行业提供通信支持,带来广泛经济效益。
2D轨道图
3D轨道图
轨道高度分析图
轨道倾角分析图
轨道综合分析图
查看轨道综合分析图